User: anonymous   Login
Location: Mascot Post Office (historical)
(40.2645°N, 99.5462°W)
Time: 23:13:48
(UTC+00:00)
Language:

Cosmos 2056 Rocket - Orbit

View from above orbital plane
View from above orbital plane
View from above satellite
View from above satellite

Ground track
Ground track

The orbit data is extracted from the following two-line orbital elements,

1 20433U 90004B   20272.45545240 -.00000000 +00000-0 +87957-5 0  9999
2 20433 074.0357 314.3345 0040220 152.6679 308.8919 14.36106110607078
Epoch (UTC): 28 September 2020 10:55:51
Eccentricity: 0.0040220
inclination: 74.0357°
perigee height: 742 km
apogee height: 800 km
right ascension of ascending node: 314.3345°
argument of perigee: 152.6679°
revolutions per day: 14.36106110
mean anomaly at epoch: 308.8919°
orbit number at epoch: 60707

The dashed part of the orbit path shows where the satellite is in the earth's shadow,  

DLR